Time,TemperatureF,DewpointF,PressureIn,WindDirection,WindDirectionDegrees,WindSpeedMPH,WindSpeedGustMPH,Humidity,HourlyPrecipIn,Conditions,Clouds,dailyrainin,SoftwareType,DateUTC
2015-03-30 00:04:00,44.7,38.6,29.94,WSW,240,4.0,9.0,79,0.00,,CLR,0.00,VWS V14.01,2015-03-30 04:04:00,
2015-03-30 00:10:00,44.8,38.4,29.93,WSW,249,1.0,6.0,78,0.00,,CLR,0.00,VWS V14.01,2015-03-30 04:10:00,
2015-03-30 00:15:00,44.8,38.7,29.93,WSW,240,1.0,4.0,79,0.00,,CLR,0.00,VWS V14.01,2015-03-30 04:15:00,
2015-03-30 00:20:00,44.6,38.5,29.93,WSW,240,0.0,2.0,79,0.00,,CLR,0.00,VWS V14.01,2015-03-30 04:20:00,
2015-03-30 00:25:00,44.4,38.3,29.93,WSW,241,1.0,3.0,79,0.00,,CLR,0.00,VWS V14.01,2015-03-30 04:25:00,
2015-03-30 00:30:00,44.3,38.2,29.93,West,260,3.0,5.0,79,0.00,,CLR,0.00,VWS V14.01,2015-03-30 04:30:00,
2015-03-30 00:35:00,44.3,38.2,29.93,West,261,1.0,6.0,79,0.00,,CLR,0.00,VWS V14.01,2015-03-30 04:35:00,
2015-03-30 00:40:00,44.2,38.1,29.93,WSW,242,1.0,6.0,79,0.00,,CLR,0.00,VWS V14.01,2015-03-30 04:40:00,
2015-03-30 00:45:00,44.1,38.0,29.93,WSW,247,1.0,5.0,79,0.00,,CLR,0.00,VWS V14.01,2015-03-30 04:45:00,
2015-03-30 00:50:00,44.1,38.3,29.93,WSW,244,0.0,3.0,80,0.00,,CLR,0.00,VWS V14.01,2015-03-30 04:50:00,
2015-03-30 00:55:00,44.0,38.2,29.93,SW,234,2.0,4.0,80,0.00,,CLR,0.00,VWS V14.01,2015-03-30 04:55:00,
2015-03-30 01:00:00,44.0,38.5,29.93,SW,235,0.0,4.0,81,0.00,,CLR,0.00,VWS V14.01,2015-03-30 05:00:00,
2015-03-30 01:05:00,44.0,38.9,29.93,SW,235,0.0,3.0,82,0.00,,CLR,0.00,VWS V14.01,2015-03-30 05:05:00,
2015-03-30 01:11:00,43.9,38.8,29.93,SW,236,1.0,4.0,82,0.00,,CLR,0.00,VWS V14.01,2015-03-30 05:11:00,
2015-03-30 01:16:00,44.0,38.9,29.93,WSW,240,1.0,7.0,82,0.00,,CLR,0.00,VWS V14.01,2015-03-30 05:16:00,
2015-03-30 01:21:00,44.1,39.3,29.93,SW,225,1.0,7.0,83,0.00,,CLR,0.00,VWS V14.01,2015-03-30 05:21:00,
2015-03-30 01:26:00,44.0,39.8,29.93,WSW,257,0.0,5.0,85,0.00,,CLR,0.00,VWS V14.01,2015-03-30 05:26:00,
2015-03-30 01:31:00,43.8,39.9,29.92,WSW,242,2.0,4.0,86,0.00,,CLR,0.00,VWS V14.01,2015-03-30 05:31:00,
2015-03-30 01:36:00,43.7,40.1,29.92,West,270,1.0,6.0,87,0.01,,CLR,0.01,VWS V14.01,2015-03-30 05:36:00,
2015-03-30 01:41:00,43.6,40.3,29.92,WSW,252,2.0,5.0,88,0.01,,CLR,0.01,VWS V14.01,2015-03-30 05:41:00,
2015-03-30 01:46:00,43.6,40.6,29.92,SW,235,1.0,4.0,89,0.01,,SCT180,0.01,VWS V14.01,2015-03-30 05:46:00,
2015-03-30 01:51:00,43.6,40.6,29.92,WSW,238,2.0,3.0,89,0.01,,SCT180,0.01,VWS V14.01,2015-03-30 05:51:00,
2015-03-30 01:56:00,43.7,41.0,29.92,West,262,2.0,6.0,90,0.01,,SCT180,0.01,VWS V14.01,2015-03-30 05:56:00,
2015-03-30 02:01:00,43.9,40.9,29.92,WSW,240,3.0,5.0,89,0.01,,SCT180,0.01,VWS V14.01,2015-03-30 06:01:00,
2015-03-30 02:06:00,44.0,41.0,29.92,WSW,237,1.0,1.0,89,0.01,,SCT180,0.01,VWS V14.01,2015-03-30 06:06:00,
2015-03-30 02:11:00,44.1,41.1,29.92,SW,236,2.0,2.0,89,0.01,,SCT180,0.01,VWS V14.01,2015-03-30 06:11:00,
2015-03-30 02:16:00,44.1,41.1,29.92,SW,236,2.0,2.0,89,0.01,,SCT180,0.01,VWS V14.01,2015-03-30 06:16:00,
2015-03-30 02:21:00,44.2,41.2,29.92,WSW,237,0.0,0.0,89,0.01,,SCT180,0.01,VWS V14.01,2015-03-30 06:21:00,
2015-03-30 02:27:00,44.2,41.5,29.92,WSW,243,1.0,1.0,90,0.01,,SCT180,0.01,VWS V14.01,2015-03-30 06:27:00,
2015-03-30 02:32:00,44.4,41.4,29.92,SW,223,2.0,2.0,89,0.01,,SCT180,0.01,VWS V14.01,2015-03-30 06:32:00,
2015-03-30 02:37:00,44.7,41.7,29.92,WSW,242,0.0,2.0,89,0.00,,SCT180,0.01,VWS V14.01,2015-03-30 06:37:00,
2015-03-30 02:42:00,44.8,41.8,29.92,WSW,244,1.0,4.0,89,0.00,,SCT180,0.01,VWS V14.01,2015-03-30 06:42:00,
2015-03-30 02:47:00,44.9,41.9,29.92,WSW,240,1.0,1.0,89,0.00,,FEW130,0.01,VWS V14.01,2015-03-30 06:47:00,
2015-03-30 02:52:00,45.1,42.1,29.92,WSW,238,0.0,1.0,89,0.00,,FEW130,0.01,VWS V14.01,2015-03-30 06:52:00,
2015-03-30 02:57:00,45.1,42.1,29.92,SW,236,0.0,1.0,89,0.00,,FEW130,0.01,VWS V14.01,2015-03-30 06:57:00,
2015-03-30 03:02:00,45.1,42.1,29.92,SW,236,0.0,1.0,89,0.00,,FEW130,0.01,VWS V14.01,2015-03-30 07:02:00,
2015-03-30 03:07:00,45.2,42.2,29.92,WNW,288,0.0,5.0,89,0.00,,FEW130,0.01,VWS V14.01,2015-03-30 07:07:00,
2015-03-30 03:12:00,45.4,42.3,29.92,WNW,287,0.0,2.0,89,0.00,,FEW130,0.01,VWS V14.01,2015-03-30 07:12:00,
2015-03-30 03:17:00,45.4,42.3,29.92,WNW,282,3.0,4.0,89,0.00,,FEW130,0.01,VWS V14.01,2015-03-30 07:17:00,
2015-03-30 03:22:00,45.5,42.2,29.92,West,281,1.0,7.0,88,0.00,,FEW130,0.01,VWS V14.01,2015-03-30 07:22:00,
2015-03-30 03:28:00,45.5,41.9,29.92,West,265,0.0,3.0,87,0.00,,FEW130,0.01,VWS V14.01,2015-03-30 07:28:00,
2015-03-30 03:33:00,45.4,41.8,29.92,West,263,1.0,3.0,87,0.00,,FEW130,0.01,VWS V14.01,2015-03-30 07:33:00,
2015-03-30 03:38:00,45.1,41.5,29.93,West,264,0.0,2.0,87,0.00,,FEW130,0.01,VWS V14.01,2015-03-30 07:38:00,
2015-03-30 03:43:00,44.9,41.3,29.93,West,265,0.0,3.0,87,0.00,,FEW130,0.01,VWS V14.01,2015-03-30 07:43:00,
2015-03-30 03:48:00,44.6,41.0,29.93,WNW,289,0.0,2.0,87,0.00,,FEW080,0.01,VWS V14.01,2015-03-30 07:48:00,
2015-03-30 03:53:00,44.4,40.8,29.93,WNW,284,1.0,4.0,87,0.00,,FEW080,0.01,VWS V14.01,2015-03-30 07:53:00,
2015-03-30 03:58:00,44.1,40.5,29.93,WNW,282,1.0,4.0,87,0.00,,FEW080,0.01,VWS V14.01,2015-03-30 07:58:00,
2015-03-30 04:03:00,44.0,40.4,29.93,West,276,2.0,4.0,87,0.00,,FEW080,0.01,VWS V14.01,2015-03-30 08:03:00,
2015-03-30 04:08:00,43.7,40.1,29.93,West,270,2.0,5.0,87,0.00,,FEW080,0.01,VWS V14.01,2015-03-30 08:08:00,
2015-03-30 04:13:00,43.4,39.8,29.93,NW,306,2.0,4.0,87,0.00,,FEW080,0.01,VWS V14.01,2015-03-30 08:13:00,
2015-03-30 04:18:00,43.1,39.5,29.93,WNW,298,1.0,3.0,87,0.00,,FEW080,0.01,VWS V14.01,2015-03-30 08:18:00,
2015-03-30 04:23:00,42.8,39.2,29.93,WNW,298,1.0,3.0,87,0.00,,FEW080,0.01,VWS V14.01,2015-03-30 08:23:00,
2015-03-30 04:28:00,42.5,38.9,29.93,ESE,104,3.0,7.0,87,0.00,,FEW080,0.01,VWS V14.01,2015-03-30 08:28:00,
2015-03-30 04:34:00,42.4,38.5,29.93,NW,315,2.0,5.0,86,0.00,,FEW080,0.01,VWS V14.01,2015-03-30 08:34:00,
2015-03-30 04:39:00,42.2,38.3,29.93,WNW,288,1.0,2.0,86,0.00,,FEW080,0.01,VWS V14.01,2015-03-30 08:39:00,
2015-03-30 04:44:00,41.9,37.7,29.93,WNW,286,0.0,3.0,85,0.00,,FEW080,0.01,VWS V14.01,2015-03-30 08:44:00,
2015-03-30 04:49:00,41.7,37.2,29.93,West,262,0.0,3.0,84,0.00,,FEW034,0.01,VWS V14.01,2015-03-30 08:49:00,
2015-03-30 04:54:00,41.5,37.0,29.93,West,278,2.0,3.0,84,0.00,,FEW034,0.01,VWS V14.01,2015-03-30 08:54:00,
2015-03-30 04:59:00,41.1,36.6,29.93,WNW,282,0.0,2.0,84,0.00,,FEW034,0.01,VWS V14.01,2015-03-30 08:59:00,
2015-03-30 05:04:00,41.0,36.5,29.93,West,280,0.0,3.0,84,0.00,,FEW034,0.01,VWS V14.01,2015-03-30 09:04:00,
2015-03-30 05:09:00,40.7,36.2,29.94,West,280,0.0,1.0,84,0.00,,FEW034,0.01,VWS V14.01,2015-03-30 09:09:00,
2015-03-30 05:14:00,40.4,36.0,29.94,West,280,0.0,3.0,84,0.00,,FEW034,0.01,VWS V14.01,2015-03-30 09:14:00,
2015-03-30 05:19:00,40.1,36.0,29.94,West,280,0.0,0.0,85,0.00,,FEW034,0.01,VWS V14.01,2015-03-30 09:19:00,
2015-03-30 05:24:00,39.7,35.6,29.94,West,280,0.0,0.0,85,0.00,,FEW034,0.01,VWS V14.01,2015-03-30 09:24:00,
2015-03-30 05:29:00,39.4,35.3,29.94,West,278,0.0,1.0,85,0.00,,FEW034,0.01,VWS V14.01,2015-03-30 09:29:00,
2015-03-30 05:35:00,39.2,35.4,29.94,West,278,0.0,1.0,86,0.00,,FEW034,0.01,VWS V14.01,2015-03-30 09:35:00,
2015-03-30 05:40:00,39.0,35.2,29.94,West,278,0.0,0.0,86,0.00,,FEW034,0.01,VWS V14.01,2015-03-30 09:40:00,
2015-03-30 05:45:00,38.8,35.0,29.94,West,278,0.0,0.0,86,0.00,,FEW034,0.01,VWS V14.01,2015-03-30 09:45:00,
2015-03-30 05:50:00,38.6,34.8,29.94,West,278,0.0,3.0,86,0.00,,FEW130,0.01,VWS V14.01,2015-03-30 09:50:00,
2015-03-30 05:55:00,38.5,34.7,29.94,West,278,0.0,0.0,86,0.00,,FEW130,0.01,VWS V14.01,2015-03-30 09:55:00,
2015-03-30 06:00:00,38.2,34.4,29.94,West,278,0.0,0.0,86,0.00,,FEW130,0.01,VWS V14.01,2015-03-30 10:00:00,
2015-03-30 06:05:00,37.9,34.1,29.95,West,278,0.0,0.0,86,0.00,,FEW130,0.01,VWS V14.01,2015-03-30 10:05:00,
2015-03-30 06:10:00,37.7,34.2,29.95,West,278,0.0,0.0,87,0.00,,FEW130,0.01,VWS V14.01,2015-03-30 10:10:00,
2015-03-30 06:15:00,37.4,33.9,29.95,West,278,0.0,0.0,87,0.00,,FEW130,0.01,VWS V14.01,2015-03-30 10:15:00,
2015-03-30 06:20:00,37.2,33.7,29.95,West,278,0.0,0.0,87,0.00,,FEW130,0.01,VWS V14.01,2015-03-30 10:20:00,
2015-03-30 06:25:00,37.0,33.5,29.96,West,278,0.0,0.0,87,0.00,,FEW130,0.01,VWS V14.01,2015-03-30 10:25:00,
2015-03-30 06:30:00,36.8,33.6,29.96,West,278,0.0,0.0,88,0.00,,FEW130,0.01,VWS V14.01,2015-03-30 10:30:00,
2015-03-30 06:35:00,36.8,33.6,29.97,West,278,0.0,0.0,88,0.00,,FEW130,0.01,VWS V14.01,2015-03-30 10:35:00,
2015-03-30 06:41:00,36.7,33.5,29.97,West,278,0.0,0.0,88,0.00,,FEW130,0.01,VWS V14.01,2015-03-30 10:41:00,
2015-03-30 06:46:00,36.5,33.3,29.97,West,278,0.0,0.0,88,0.00,,-RA,0.01,VWS V14.01,2015-03-30 10:46:00,
2015-03-30 06:51:00,36.2,33.0,29.98,West,278,0.0,0.0,88,0.00,,-RA,0.01,VWS V14.01,2015-03-30 10:51:00,
2015-03-30 06:56:00,35.9,32.7,29.98,West,278,0.0,0.0,88,0.00,,-RA,0.01,VWS V14.01,2015-03-30 10:56:00,
2015-03-30 07:01:00,35.6,32.7,29.98,West,278,0.0,0.0,89,0.00,,-RA,0.01,VWS V14.01,2015-03-30 11:01:00,
2015-03-30 07:06:00,35.3,32.4,29.98,West,278,0.0,0.0,89,0.00,,-RA,0.01,VWS V14.01,2015-03-30 11:06:00,
2015-03-30 07:11:00,35.0,32.1,29.98,West,278,0.0,0.0,89,0.00,,-RA,0.01,VWS V14.01,2015-03-30 11:11:00,
2015-03-30 07:16:00,34.7,31.8,29.98,West,278,0.0,0.0,89,0.00,,-RA,0.01,VWS V14.01,2015-03-30 11:16:00,
2015-03-30 07:21:00,34.4,31.5,29.98,West,278,0.0,0.0,89,0.00,,-RA,0.01,VWS V14.01,2015-03-30 11:21:00,
2015-03-30 07:26:00,34.3,31.7,29.98,West,278,0.0,0.0,90,0.00,,-RA,0.01,VWS V14.01,2015-03-30 11:26:00,
2015-03-30 07:31:00,34.3,32.0,29.99,West,278,0.0,0.0,91,0.00,,-RA,0.01,VWS V14.01,2015-03-30 11:31:00,
2015-03-30 07:36:00,34.3,32.2,29.99,West,278,0.0,0.0,92,0.00,,-RA,0.01,VWS V14.01,2015-03-30 11:36:00,
2015-03-30 07:41:00,34.5,32.4,30.00,West,278,0.0,0.0,92,0.00,,-RA,0.01,VWS V14.01,2015-03-30 11:41:00,
2015-03-30 07:47:00,34.9,32.8,30.00,West,278,0.0,0.0,92,0.00,,CLR,0.01,VWS V14.01,2015-03-30 11:47:00,
2015-03-30 07:52:00,35.2,33.1,30.01,West,278,0.0,0.0,92,0.00,,CLR,0.01,VWS V14.01,2015-03-30 11:52:00,
2015-03-30 07:57:00,35.7,33.6,30.01,West,278,0.0,0.0,92,0.00,,CLR,0.01,VWS V14.01,2015-03-30 11:57:00,
2015-03-30 08:02:00,36.3,34.2,30.01,West,278,0.0,0.0,92,0.00,,-RA,0.01,VWS V14.01,2015-03-30 12:02:00,
2015-03-30 08:07:00,37.0,34.6,30.01,West,278,0.0,0.0,91,0.00,,-RA,0.01,VWS V14.01,2015-03-30 12:07:00,
2015-03-30 08:12:00,37.6,34.9,30.01,West,278,0.0,1.0,90,0.00,,-RA,0.01,VWS V14.01,2015-03-30 12:12:00,
2015-03-30 08:17:00,38.2,35.0,30.02,West,278,0.0,0.0,88,0.00,,-RA,0.01,VWS V14.01,2015-03-30 12:17:00,
2015-03-30 08:22:00,38.7,35.2,30.02,West,277,0.0,1.0,87,0.00,,-RA,0.01,VWS V14.01,2015-03-30 12:22:00,
2015-03-30 08:27:00,39.2,35.4,30.02,West,277,0.0,0.0,86,0.00,,-RA,0.01,VWS V14.01,2015-03-30 12:27:00,
2015-03-30 08:32:00,39.6,35.5,30.02,West,277,2.0,2.0,85,0.00,,-RA,0.01,VWS V14.01,2015-03-30 12:32:00,
2015-03-30 08:37:00,40.0,35.9,30.02,West,277,0.0,2.0,85,0.00,,-RA,0.01,VWS V14.01,2015-03-30 12:37:00,
2015-03-30 08:42:00,40.4,36.0,30.03,West,277,1.0,3.0,84,0.00,,-RA,0.01,VWS V14.01,2015-03-30 12:42:00,
2015-03-30 08:48:00,40.9,36.5,30.03,West,277,0.0,1.0,84,0.00,,SCT060,0.01,VWS V14.01,2015-03-30 12:48:00,
2015-03-30 08:53:00,41.3,36.2,30.03,WSW,253,0.0,2.0,82,0.00,,SCT060,0.01,VWS V14.01,2015-03-30 12:53:00,
2015-03-30 08:58:00,41.6,36.8,30.03,WSW,253,0.0,4.0,83,0.00,,SCT060,0.01,VWS V14.01,2015-03-30 12:58:00,
2015-03-30 09:03:00,42.0,36.9,30.04,WSW,253,0.0,3.0,82,0.00,,SCT060,0.01,VWS V14.01,2015-03-30 13:03:00,
2015-03-30 09:08:00,42.3,36.9,30.04,WSW,244,0.0,1.0,81,0.00,,SCT060,0.01,VWS V14.01,2015-03-30 13:08:00,
2015-03-30 09:13:00,42.9,37.8,30.04,WSW,244,0.0,1.0,82,0.00,,SCT060,0.01,VWS V14.01,2015-03-30 13:13:00,
2015-03-30 09:18:00,43.4,38.0,30.04,WSW,244,1.0,3.0,81,0.00,,SCT060,0.01,VWS V14.01,2015-03-30 13:18:00,
2015-03-30 09:23:00,43.9,38.5,30.04,WSW,244,2.0,3.0,81,0.00,,SCT060,0.01,VWS V14.01,2015-03-30 13:23:00,
2015-03-30 09:28:00,44.2,38.1,30.04,WSW,244,0.0,2.0,79,0.00,,SCT060,0.01,VWS V14.01,2015-03-30 13:28:00,
2015-03-30 09:33:00,44.7,38.6,30.04,WSW,244,1.0,3.0,79,0.00,,SCT060,0.01,VWS V14.01,2015-03-30 13:33:00,
2015-03-30 09:38:00,45.3,38.9,30.04,WSW,241,3.0,4.0,78,0.00,,SCT060,0.01,VWS V14.01,2015-03-30 13:38:00,
2015-03-30 09:43:00,45.6,39.2,30.04,SW,226,3.0,4.0,78,0.00,,SCT060,0.01,VWS V14.01,2015-03-30 13:43:00,
2015-03-30 09:48:00,46.0,39.2,30.04,SW,227,2.0,3.0,77,0.00,,OVC110,0.01,VWS V14.01,2015-03-30 13:48:00,
2015-03-30 09:54:00,46.4,39.3,30.04,SW,229,3.0,3.0,76,0.00,,OVC110,0.01,VWS V14.01,2015-03-30 13:54:00,
2015-03-30 09:59:00,46.8,39.7,30.04,SW,229,2.0,3.0,76,0.00,,OVC110,0.01,VWS V14.01,2015-03-30 13:59:00,
2015-03-30 10:04:00,47.3,39.8,30.04,SW,229,1.0,2.0,75,0.00,,OVC110,0.01,VWS V14.01,2015-03-30 14:04:00,
2015-03-30 10:09:00,47.5,40.0,30.04,WSW,239,1.0,4.0,75,0.00,,OVC110,0.01,VWS V14.01,2015-03-30 14:09:00,
2015-03-30 10:14:00,47.6,39.4,30.05,SW,230,3.0,5.0,73,0.00,,OVC110,0.01,VWS V14.01,2015-03-30 14:14:00,
2015-03-30 10:19:00,47.6,39.4,30.05,WSW,246,1.0,4.0,73,0.00,,OVC110,0.01,VWS V14.01,2015-03-30 14:19:00,
2015-03-30 10:24:00,47.8,39.9,30.05,WSW,249,1.0,5.0,74,0.00,,OVC110,0.01,VWS V14.01,2015-03-30 14:24:00,
2015-03-30 10:29:00,47.7,39.1,30.05,WSW,238,1.0,5.0,72,0.00,,OVC110,0.01,VWS V14.01,2015-03-30 14:29:00,
2015-03-30 10:34:00,47.8,39.2,30.05,SW,234,4.0,5.0,72,0.00,,OVC110,0.01,VWS V14.01,2015-03-30 14:34:00,
2015-03-30 10:39:00,48.3,39.7,30.05,SW,235,2.0,6.0,72,0.00,,OVC110,0.01,VWS V14.01,2015-03-30 14:39:00,
2015-03-30 10:44:00,48.9,39.6,30.05,SW,234,4.0,4.0,70,0.00,,OVC110,0.01,VWS V14.01,2015-03-30 14:44:00,
2015-03-30 10:49:00,49.3,39.9,30.05,SW,235,0.0,2.0,70,0.00,,OVC049,0.01,VWS V14.01,2015-03-30 14:49:00,
2015-03-30 10:54:00,49.6,38.7,30.05,SW,236,1.0,7.0,66,0.00,,OVC049,0.01,VWS V14.01,2015-03-30 14:54:00,
2015-03-30 11:00:00,49.6,39.1,30.05,SW,235,5.0,5.0,67,0.00,,OVC049,0.01,VWS V14.01,2015-03-30 15:00:00,
2015-03-30 11:05:00,49.8,40.0,30.06,West,265,0.0,4.0,69,0.00,,OVC049,0.01,VWS V14.01,2015-03-30 15:05:00,
2015-03-30 11:10:00,50.4,39.9,30.06,West,265,1.0,3.0,67,0.00,,OVC049,0.01,VWS V14.01,2015-03-30 15:10:00,
2015-03-30 11:15:00,50.8,40.6,30.06,WSW,252,2.0,4.0,68,0.00,,OVC049,0.01,VWS V14.01,2015-03-30 15:15:00,
2015-03-30 11:20:00,51.4,40.4,30.06,WSW,252,0.0,2.0,66,0.00,,OVC049,0.01,VWS V14.01,2015-03-30 15:20:00,
2015-03-30 11:25:00,51.5,39.3,30.07,SSW,209,1.0,6.0,63,0.00,,OVC049,0.01,VWS V14.01,2015-03-30 15:25:00,
2015-03-30 11:30:00,51.6,41.4,30.06,WSW,246,2.0,4.0,68,0.00,,OVC049,0.01,VWS V14.01,2015-03-30 15:30:00,
2015-03-30 11:35:00,51.5,41.3,30.06,WSW,252,2.0,2.0,68,0.00,,OVC049,0.01,VWS V14.01,2015-03-30 15:35:00,
2015-03-30 11:40:00,51.8,40.8,30.06,SW,234,0.0,4.0,66,0.00,,OVC049,0.01,VWS V14.01,2015-03-30 15:40:00,
2015-03-30 11:45:00,51.2,40.2,30.06,WSW,238,2.0,7.0,66,0.00,,OVC049,0.01,VWS V14.01,2015-03-30 15:45:00,
2015-03-30 11:50:00,51.4,40.0,30.06,WSW,238,0.0,4.0,65,0.00,,OVC049,0.01,VWS V14.01,2015-03-30 15:50:00,
2015-03-30 11:55:00,51.5,40.1,30.06,WSW,246,2.0,4.0,65,0.00,,OVC049,0.01,VWS V14.01,2015-03-30 15:55:00,
2015-03-30 12:01:00,52.3,41.7,30.06,WSW,240,3.0,3.0,67,0.00,,OVC049,0.01,VWS V14.01,2015-03-30 16:01:00,
2015-03-30 12:06:00,52.8,41.8,30.06,SW,234,3.0,6.0,66,0.00,,OVC049,0.01,VWS V14.01,2015-03-30 16:06:00,
2015-03-30 12:11:00,53.0,41.2,30.06,SW,235,2.0,3.0,64,0.00,,OVC049,0.01,VWS V14.01,2015-03-30 16:11:00,
2015-03-30 12:16:00,53.6,42.5,30.06,WNW,290,5.0,5.0,66,0.00,,OVC049,0.01,VWS V14.01,2015-03-30 16:16:00,
2015-03-30 12:21:00,53.2,40.1,30.06,NNW,342,4.0,6.0,61,0.00,,OVC049,0.01,VWS V14.01,2015-03-30 16:21:00,
2015-03-30 12:26:00,53.6,39.2,30.06,West,280,2.0,6.0,58,0.00,,OVC049,0.01,VWS V14.01,2015-03-30 16:26:00,
2015-03-30 12:31:00,53.4,39.5,30.06,West,273,2.0,6.0,59,0.00,,OVC049,0.01,VWS V14.01,2015-03-30 16:31:00,
2015-03-30 12:36:00,53.7,39.7,30.06,NW,306,1.0,5.0,59,0.00,,OVC049,0.01,VWS V14.01,2015-03-30 16:36:00,
2015-03-30 12:41:00,54.1,39.7,30.06,WSW,245,2.0,4.0,58,0.00,,OVC049,0.01,VWS V14.01,2015-03-30 16:41:00,
2015-03-30 12:46:00,53.9,37.7,30.06,WSW,254,4.0,7.0,54,0.00,,OVC060,0.01,VWS V14.01,2015-03-30 16:46:00,
2015-03-30 12:51:00,54.4,41.7,30.06,NNW,339,2.0,2.0,62,0.00,,OVC060,0.01,VWS V14.01,2015-03-30 16:51:00,
2015-03-30 12:56:00,55.0,39.6,30.06,West,273,3.0,3.0,56,0.00,,OVC060,0.01,VWS V14.01,2015-03-30 16:56:00,
2015-03-30 13:01:00,54.7,37.4,30.06,West,261,3.0,3.0,52,0.00,,OVC060,0.01,VWS V14.01,2015-03-30 17:01:00,
2015-03-30 13:07:00,54.4,38.1,30.05,NNW,328,2.0,2.0,54,0.00,,OVC060,0.01,VWS V14.01,2015-03-30 17:07:00,
2015-03-30 13:12:00,55.0,40.5,30.05,WSW,242,1.0,3.0,58,0.00,,OVC060,0.01,VWS V14.01,2015-03-30 17:12:00,
2015-03-30 13:17:00,55.3,39.9,30.05,WSW,250,2.0,3.0,56,0.00,,OVC060,0.01,VWS V14.01,2015-03-30 17:17:00,
2015-03-30 13:22:00,55.2,38.9,30.05,NW,306,1.0,2.0,54,0.00,,OVC060,0.01,VWS V14.01,2015-03-30 17:22:00,
2015-03-30 13:27:00,55.7,39.8,30.05,SW,224,0.0,4.0,55,0.00,,OVC060,0.01,VWS V14.01,2015-03-30 17:27:00,
2015-03-30 13:32:00,55.4,39.0,30.05,NW,313,0.0,4.0,54,0.00,,OVC060,0.01,VWS V14.01,2015-03-30 17:32:00,
2015-03-30 13:37:00,56.2,38.3,30.05,NW,325,1.0,3.0,51,0.00,,OVC060,0.01,VWS V14.01,2015-03-30 17:37:00,
2015-03-30 13:42:00,56.6,39.2,30.06,WSW,248,3.0,5.0,52,0.00,,OVC060,0.01,VWS V14.01,2015-03-30 17:42:00,
2015-03-30 13:47:00,56.8,40.8,30.05,West,269,2.0,4.0,55,0.00,,FEW190,0.01,VWS V14.01,2015-03-30 17:47:00,
2015-03-30 13:52:00,56.6,40.6,30.05,NW,322,3.0,4.0,55,0.00,,FEW190,0.01,VWS V14.01,2015-03-30 17:52:00,
2015-03-30 13:57:00,56.6,36.6,30.05,SW,234,2.0,10.0,47,0.00,,FEW190,0.01,VWS V14.01,2015-03-30 17:57:00,
2015-03-30 14:02:00,56.7,40.3,30.05,WSW,243,0.0,2.0,54,0.00,,FEW190,0.01,VWS V14.01,2015-03-30 18:02:00,
2015-03-30 14:08:00,57.0,40.1,30.05,West,276,2.0,5.0,53,0.00,,FEW190,0.01,VWS V14.01,2015-03-30 18:08:00,
2015-03-30 14:13:00,57.4,39.9,30.05,SW,236,2.0,4.0,52,0.00,,FEW190,0.01,VWS V14.01,2015-03-30 18:13:00,
2015-03-30 14:18:00,57.8,38.8,30.04,West,261,1.0,7.0,49,0.00,,FEW190,0.01,VWS V14.01,2015-03-30 18:18:00,
2015-03-30 14:23:00,58.1,39.6,30.04,WNW,297,3.0,3.0,50,0.00,,FEW190,0.01,VWS V14.01,2015-03-30 18:23:00,
2015-03-30 14:28:00,58.3,37.6,30.04,WNW,285,3.0,6.0,46,0.00,,FEW190,0.01,VWS V14.01,2015-03-30 18:28:00,
2015-03-30 14:33:00,57.7,37.6,30.03,WNW,286,1.0,10.0,47,0.00,,FEW190,0.01,VWS V14.01,2015-03-30 18:33:00,
2015-03-30 14:38:00,58.0,38.4,30.03,West,274,1.0,4.0,48,0.00,,FEW190,0.01,VWS V14.01,2015-03-30 18:38:00,
2015-03-30 14:43:00,58.1,36.9,30.03,NW,312,2.0,4.0,45,0.00,,FEW190,0.01,VWS V14.01,2015-03-30 18:43:00,
2015-03-30 14:48:00,58.3,37.6,30.03,West,280,3.0,8.0,46,0.00,,FEW200,0.01,VWS V14.01,2015-03-30 18:48:00,
2015-03-30 14:53:00,58.7,36.9,30.03,NW,311,1.0,3.0,44,0.00,,FEW200,0.01,VWS V14.01,2015-03-30 18:53:00,
2015-03-30 14:58:00,58.7,37.4,30.03,NW,307,0.0,3.0,45,0.00,,FEW200,0.01,VWS V14.01,2015-03-30 18:58:00,
2015-03-30 15:03:00,58.8,37.0,30.02,West,265,1.0,4.0,44,0.00,,FEW060,0.01,VWS V14.01,2015-03-30 19:03:00,
2015-03-30 15:09:00,59.0,36.0,30.02,SW,235,7.0,7.0,42,0.00,,FEW060,0.01,VWS V14.01,2015-03-30 19:09:00,
2015-03-30 15:14:00,58.8,37.5,30.02,NNW,337,4.0,7.0,45,0.00,,FEW060,0.01,VWS V14.01,2015-03-30 19:14:00,
2015-03-30 15:19:00,59.1,38.4,30.02,West,264,0.0,4.0,46,0.00,,FEW060,0.01,VWS V14.01,2015-03-30 19:19:00,
2015-03-30 15:24:00,59.3,36.2,30.02,WSW,238,1.0,5.0,42,0.00,,FEW060,0.01,VWS V14.01,2015-03-30 19:24:00,
2015-03-30 15:29:00,59.3,37.4,30.01,SW,234,4.0,6.0,44,0.00,,FEW060,0.01,VWS V14.01,2015-03-30 19:29:00,
2015-03-30 15:34:00,59.0,36.6,30.01,WNW,297,3.0,4.0,43,0.00,,FEW060,0.01,VWS V14.01,2015-03-30 19:34:00,
2015-03-30 15:39:00,59.0,37.7,30.01,WSW,239,2.0,6.0,45,0.00,,FEW060,0.01,VWS V14.01,2015-03-30 19:39:00,
2015-03-30 15:44:00,59.1,36.7,30.01,SW,233,4.0,8.0,43,0.00,,FEW060,0.01,VWS V14.01,2015-03-30 19:44:00,
2015-03-30 15:49:00,58.6,37.3,30.01,NW,312,1.0,4.0,45,0.00,,CLR,0.01,VWS V14.01,2015-03-30 19:49:00,
2015-03-30 15:54:00,58.7,37.4,30.01,WNW,295,1.0,9.0,45,0.00,,CLR,0.01,VWS V14.01,2015-03-30 19:54:00,
2015-03-30 15:59:00,58.9,35.9,30.01,WSW,243,2.0,6.0,42,0.00,,CLR,0.01,VWS V14.01,2015-03-30 19:59:00,
2015-03-30 16:04:00,58.7,35.7,30.01,WNW,301,2.0,5.0,42,0.00,,CLR,0.01,VWS V14.01,2015-03-30 20:04:00,